This is the latest recevied weather packets stored in our database for station/object DK4SDR-10. If no packets are shown the sender has not sent any weather packets the latest 1 day(s).
| Time | Temp. | Humidity | Pressure | Rain* | Wind** | Luminosity | Snow |
|---|---|---|---|---|---|---|---|
| 1777786403 | 12.78° C | 46% | 1016.2 hPa | - | - | - | - |
| 1777785502 | 12.78° C | 46% | 1016.1 hPa | - | - | - | - |
| 1777784602 | 12.78° C | 46% | 1016 hPa | - | - | - | - |
| 1777783702 | 12.78° C | 46% | 1016.1 hPa | - | - | - | - |
| 1777782802 | 12.78° C | 45% | 1016.1 hPa | - | - | - | - |
| 1777781902 | 13.33° C | 45% | 1016.1 hPa | - | - | - | - |
| 1777781002 | 13.33° C | 45% | 1016 hPa | - | - | - | - |
| 1777780102 | 13.33° C | 45% | 1016.1 hPa | - | - | - | - |
| 1777779202 | 13.33° C | 44% | 1016 hPa | - | - | - | - |
| 1777778302 | 13.89° C | 44% | 1016.1 hPa | - | - | - | - |
| 1777777402 | 13.89° C | 44% | 1015.9 hPa | - | - | - | - |
| 1777776502 | 13.89° C | 43% | 1015.9 hPa | - | - | - | - |
| 1777775602 | 14.44° C | 43% | 1015.9 hPa | - | - | - | - |
| 1777774702 | 14.44° C | 43% | 1015.9 hPa | - | - | - | - |
| 1777773802 | 14.44° C | 42% | 1016 hPa | - | - | - | - |
| 1777772902 | 15° C | 42% | 1016.1 hPa | - | - | - | - |
| 1777772001 | 15° C | 42% | 1016.1 hPa | - | - | - | - |
| 1777771101 | 15.56° C | 42% | 1016 hPa | - | - | - | - |
| 1777770201 | 15.56° C | 41% | 1016.2 hPa | - | - | - | - |
| 1777769301 | 15.56° C | 41% | 1016.3 hPa | - | - | - | - |
| 1777768401 | 16.11° C | 40% | 1016.4 hPa | - | - | - | - |
| 1777767501 | 16.11° C | 40% | 1016.4 hPa | - | - | - | - |
| 1777766601 | 16.67° C | 40% | 1016.5 hPa | - | - | - | - |
| 1777765700 | 16.67° C | 39% | 1016.5 hPa | - | - | - | - |
| 1777764799 | 17.22° C | 39% | 1016.6 hPa | - | - | - | - |
* Rain since midnight (hover to see other rain measurements)
** Current wind speed in m/s (hover to see current wind gust speed)